GW5129 Weather Reports


time (UTC)temp
F
wind
direction
speed
knots
gust
knots
rain 1hr
in
rain 24hr
in
rain mn
in
humidity
%
barometer
mb
20260510093707 53 96 0.0 0.0 0.00 0.00 0.00 93 1012.6
20260510093204 53 96 0.9 1.7 0.00 0.00 0.00 93 1012.5
20260510092700 53 103 0.0 0.0 0.00 0.00 0.00 92 1012.6
20260510092156 54 93 0.0 0.0 0.00 0.00 0.00 92 1012.6
20260510091652 54 94 0.0 1.7 0.00 0.00 0.00 92 1012.2
20260510091148 54 57 0.0 0.9 0.00 0.00 0.00 92 1012.5
20260510090645 54 297 0.0 0.0 0.00 0.00 0.00 92 1012.4
20260510090142 54 88 0.0 0.0 0.00 0.00 0.00 91 1012.5
20260510085637 54 113 0.0 0.0 0.00 0.00 0.00 91 1012.6
20260510085132 55 116 0.0 0.0 0.00 0.00 0.00 91 1012.6
20260510084629 55 116 0.0 0.0 0.00 0.00 0.00 91 1012.6
20260510084125 55 117 0.0 0.0 0.00 0.00 0.00 91 1012.5
20260510083623 55 116 0.0 0.0 0.00 0.00 0.00 91 1012.4
20260510083119 55 107 0.0 0.0 0.00 0.00 0.00 90 1012.4
20260510082615 55 100 0.0 0.0 0.00 0.00 0.00 90 1012.7
20260510082111 55 100 0.0 0.0 0.00 0.00 0.00 90 1012.7
20260510081606 54 95 0.0 0.0 0.00 0.00 0.00 90 1012.5
20260510081102 55 58 0.0 0.0 0.00 0.00 0.00 89 1012.6
20260510080601 55 38 0.0 0.0 0.00 0.00 0.00 89 1012.4
20260510080058 55 33 0.0 0.0 0.00 0.00 0.00 88 1012.5
20260510075555 55 35 0.0 0.0 0.00 0.00 0.00 88 1012.5
20260510075052 56 35 0.0 0.0 0.00 0.00 0.00 87 1012.2
20260510074550 56 35 0.0 0.0 0.00 0.00 0.00 87 1012.4
20260510074045 56 21 0.0 0.0 0.00 0.00 0.00 87 1012.2
20260510073541 56 16 0.0 0.0 0.00 0.00 0.00 86 1012.1
20260510073039 56 7 0.0 0.0 0.00 0.00 0.00 85 1012.6
20260510072535 57 350 0.0 0.0 0.00 0.00 0.00 84 1012.4
20260510072031 57 350 0.0 0.0 0.00 0.00 0.00 83 1012.6
20260510071527 58 331 0.0 0.0 0.00 0.00 0.00 83 1012.5
20260510071026 58 331 0.0 0.0 0.00 0.00 0.00 82 1012.8
20260510070522 59 291 0.9 0.9 0.00 0.00 0.00 81 1012.2
20260510070019 60 295 0.0 1.7 0.00 0.00 0.00 81 1012.5
20260510065515 60 337 0.9 0.9 0.00 0.00 0.00 80 1012.2
20260510065011 60 108 0.0 0.9 0.00 0.00 0.00 80 1011.9
20260510064508 60 196 1.7 3.5 0.00 0.00 0.00 80 1012.0
20260510064005 60 115 1.7 2.6 0.00 0.00 0.00 80 1012.1
20260510063501 60 187 1.7 1.7 0.00 0.00 0.00 80 1012.1
20260510062959 60 132 0.9 2.6 0.00 0.00 0.00 80 1012.0
20260510062454 60 135 1.7 2.6 0.00 0.00 0.00 80 1012.0
20260510061949 60 225 2.6 5.2 0.00 0.00 0.00 80 1011.9
20260510061447 60 113 1.7 2.6 0.00 0.00 0.00 79 1011.9
20260510060943 60 124 1.7 2.6 0.00 0.00 0.00 79 1012.2
20260510060440 61 134 0.0 1.7 0.00 0.00 0.00 79 1012.1
20260510055936 61 134 0.9 5.2 0.00 0.00 0.00 78 1011.9
20260510055432 61 219 4.3 7.0 0.00 0.00 0.00 79 1012.0
20260510054930 61 181 0.9 3.5 0.00 0.00 0.00 78 1011.8
20260510054425 61 128 4.3 6.1 0.00 0.00 0.00 79 1011.9
20260510053921 61 187 1.7 3.5 0.00 0.00 0.00 79 1011.8
20260510053416 61 196 2.6 3.5 0.00 0.00 0.00 79 1011.9
20260510052913 61 129 1.7 2.6 0.00 0.00 0.00 79 1011.9
20260510052409 60 127 1.7 3.5 0.00 0.00 0.00 79 1012.0
20260510051905 60 129 0.9 1.7 0.00 0.00 0.00 79 1011.8
20260510051402 61 164 0.9 1.7 0.00 0.00 0.00 79 1011.8
20260510050858 60 167 2.6 2.6 0.00 0.00 0.00 79 1011.8
20260510050355 60 135 2.6 3.5 0.00 0.00 0.00 79 1011.9
20260510045852 60 124 1.7 3.5 0.00 0.00 0.00 79 1011.7
20260510045349 60 119 1.7 2.6 0.00 0.00 0.00 80 1011.7
20260510044846 60 91 0.9 1.7 0.00 0.00 0.00 80 1011.9
20260510044343 60 168 1.7 2.6 0.00 0.00 0.00 80 1011.8
20260510043839 60 102 1.7 1.7 0.00 0.00 0.00 80 1011.9
20260510043335 59 118 0.9 1.7 0.00 0.00 0.00 80 1011.8
20260510042833 59 138 0.9 1.7 0.00 0.00 0.00 80 1011.7
20260510042329 60 115 1.7 2.6 0.00 0.00 0.00 79 1011.8
20260510041825 60 148 1.7 1.7 0.00 0.00 0.00 79 1011.7
20260510041323 60 115 0.9 1.7 0.00 0.00 0.00 78 1011.6
20260510040820 60 99 0.9 1.7 0.00 0.00 0.00 78 1011.8
20260510040316 60 213 1.7 1.7 0.00 0.00 0.00 78 1011.8
20260510035812 60 128 0.9 2.6 0.00 0.28 0.28 78 1011.6
20260510035308 60 91 0.9 2.6 0.00 0.28 0.28 78 1011.6
20260510034804 60 125 1.7 1.7 0.00 0.28 0.28 78 1011.5
20260510034302 60 107 3.5 3.5 0.00 0.28 0.28 78 1011.6
20260510033758 61 117 0.0 1.7 0.00 0.28 0.28 77 1011.7
20260510033255 61 99 0.9 1.7 0.00 0.28 0.28 76 1011.6
20260510032751 61 149 0.9 0.9 0.00 0.28 0.28 76 1011.7
20260510032248 62 129 0.0 2.6 0.00 0.28 0.28 76 1011.7
20260510031743 62 127 0.0 0.9 0.00 0.28 0.28 76 1011.7
20260510031239 62 159 1.7 1.7 0.00 0.28 0.28 77 1012.0
20260510030739 61 350 1.7 3.5 0.00 0.28 0.28 79 1012.1
20260510030236 60 314 1.7 3.5 0.00 0.28 0.28 80 1012.4
20260510025733 59 115 1.7 1.7 0.00 0.28 0.28 80 1011.3
20260510025231 59 130 1.7 2.6 0.00 0.28 0.28 80 1011.2
20260510024722 59 154 0.9 2.6 0.00 0.28 0.28 80 1011.3
20260510024219 59 61 0.0 0.0 0.00 0.28 0.28 79 1011.2
20260510023714 59 65 0.0 0.0 0.00 0.28 0.28 79 1011.2
20260510023211 59 69 0.0 0.0 0.00 0.28 0.28 78 1010.8
20260510022707 60 96 0.0 0.0 0.00 0.28 0.28 77 1011.0
20260510022202 60 113 0.9 1.7 0.00 0.28 0.28 77 1011.1
20260510021657 60 105 1.7 2.6 0.00 0.28 0.28 77 1010.9
20260510021155 60 106 0.0 0.9 0.00 0.28 0.28 77 1010.8
20260510020655 60 99 0.0 0.9 0.00 0.28 0.28 77 1010.9
20260510020151 60 80 0.0 0.9 0.00 0.28 0.28 77 1010.8
20260510015647 60 80 0.0 0.0 0.00 0.28 0.28 76 1010.7
20260510015144 60 81 0.0 0.0 0.00 0.28 0.28 75 1010.4
20260510014644 61 124 0.9 2.6 0.00 0.28 0.28 74 1010.5
20260510014142 61 125 2.6 3.5 0.00 0.28 0.28 74 1010.4
20260510013636 61 98 1.7 1.7 0.00 0.28 0.28 74 1010.5
20260510013132 61 115 1.7 2.6 0.00 0.28 0.28 74 1010.4
20260510012632 61 170 1.7 1.7 0.00 0.28 0.28 74 1010.4
20260510012128 61 110 0.0 0.0 0.00 0.28 0.28 74 1010.3
20260510011623 60 126 0.0 0.9 0.00 0.28 0.28 75 1010.0
20260510011119 60 126 0.9 0.9 0.00 0.28 0.28 74 1010.1
20260510010615 61 126 0.0 0.9 0.00 0.28 0.28 73 1009.9
20260510010113 62 126 0.0 1.7 0.00 0.28 0.28 72 1010.1
20260510005608 62 125 0.0 0.0 0.00 0.28 0.28 71 1010.0
20260510005106 62 123 0.9 1.7 0.00 0.28 0.28 71 1009.9
20260510004604 62 122 0.0 0.0 0.00 0.28 0.28 70 1009.8
20260510004102 62 121 0.0 0.0 0.00 0.28 0.28 69 1009.9
20260510003558 64 121 0.0 0.0 0.00 0.28 0.28 67 1009.9
20260510003054 64 121 0.0 1.7 0.00 0.28 0.28 67 1009.8
20260510002548 63 110 0.0 0.9 0.00 0.28 0.28 68 1009.7
20260510002046 64 107 0.9 1.7 0.00 0.28 0.28 67 1009.9
20260510001543 64 243 0.9 0.9 0.00 0.28 0.28 67 1009.9
20260510001042 64 234 0.0 0.0 0.00 0.28 0.28 67 1009.7
20260510000542 64 180 0.0 0.0 0.00 0.28 0.28 66 1009.6
20260510000039 65 131 0.0 0.0 0.00 0.28 0.28 65 1009.6
20260509235535 65 161 0.9 1.7 0.00 0.28 0.28 64 1009.6
20260509235032 66 170 0.9 1.7 0.00 0.28 0.28 63 1009.5
20260509234528 66 263 0.0 1.7 0.00 0.28 0.28 63 1009.3
20260509234026 67 215 1.7 3.5 0.00 0.28 0.28 62 1009.3
20260509233523 67 251 0.9 2.6 0.00 0.28 0.28 62 1009.4
20260509233021 67 153 1.7 2.6 0.00 0.28 0.28 60 1009.3
20260509232517 67 102 1.7 2.6 0.00 0.28 0.28 59 1009.2
20260509232014 67 133 0.9 0.9 0.00 0.28 0.28 58 1009.4
20260509231510 67 215 3.5 6.1 0.00 0.28 0.28 58 1009.4
20260509231008 67 236 3.5 5.2 0.00 0.28 0.28 58 1009.2
20260509230505 68 180 2.6 6.1 0.00 0.28 0.28 57 1009.3
20260509230001 68 187 3.5 6.1 0.00 0.28 0.28 58 1009.3
20260509225457 68 227 2.6 6.1 0.00 0.28 0.28 57 1009.4
20260509224953 68 105 2.6 5.2 0.00 0.28 0.28 56 1009.5
20260509224448 69 98 3.5 6.1 0.00 0.28 0.28 55 1009.3
20260509223946 69 260 0.9 5.2 0.00 0.28 0.28 55 1009.4
20260509223442 69 159 2.6 6.1 0.00 0.28 0.28 55 1009.5
20260509222940 69 186 1.7 6.1 0.00 0.28 0.28 55 1009.5
20260509222435 69 186 3.5 8.7 0.00 0.28 0.28 54 1009.4
20260509221931 69 275 3.5 8.7 0.00 0.28 0.28 54 1009.4
20260509221428 69 192 0.9 7.0 0.00 0.28 0.28 53 1009.7
20260509220923 70 270 1.7 6.1 0.00 0.28 0.28 54 1009.6
20260509220420 70 199 2.6 3.5 0.00 0.28 0.28 54 1009.7
20260509215916 70 101 1.7 7.0 0.00 0.28 0.28 55 1009.8
20260509215411 69 193 2.6 5.2 0.00 0.28 0.28 54 1009.6
20260509214909 70 156 2.6 3.5 0.00 0.28 0.28 55 1009.5
20260509214406 70 178 4.3 5.2 0.00 0.28 0.28 55 1009.6
20260509213904 69 216 4.3 6.1 0.00 0.28 0.28 56 1009.8
20260509213359 69 216 4.3 6.1 0.00 0.28 0.28 56 1009.8
20260509212857 69 103 3.5 5.2 0.00 0.28 0.28 56 1009.8
20260509212355 69 295 0.9 2.6 0.00 0.28 0.28 58 1009.7
20260509211851 68 158 1.7 2.6 0.00 0.28 0.28 59 1009.8
20260509211346 67 163 1.7 2.6 0.00 0.28 0.28 58 1009.9
20260509210843 68 119 3.5 3.5 0.00 0.28 0.28 57 1009.8
20260509210340 68 114 3.5 5.2 0.00 0.28 0.28 56 1009.6
20260509205840 68 173 5.2 7.8 0.00 0.28 0.28 57 1009.6
20260509205334 70 156 1.7 5.2 0.00 0.28 0.28 56 1009.7
20260509204831 70 300 0.9 5.2 0.00 0.28 0.28 57 1009.9
20260509204328 69 214 2.6 7.0 0.00 0.28 0.28 55 1009.9
20260509203824 69 203 3.5 5.2 0.00 0.28 0.28 56 1010.0
20260509203321 69 230 4.3 7.0 0.00 0.28 0.28 57 1010.1
20260509202817 69 197 0.0 5.2 0.00 0.28 0.28 58 1009.8
20260509202314 68 227 3.5 7.8 0.00 0.28 0.28 59 1010.1
20260509201813 68 162 3.5 6.1 0.00 0.28 0.28 60 1010.2
20260509201310 69 156 2.6 6.1 0.00 0.28 0.28 59 1010.2
20260509200806 70 156 1.7 7.0 0.00 0.28 0.28 61 1010.3
20260509200302 69 232 0.9 7.0 0.00 0.28 0.28 60 1010.5
20260509195758 70 269 0.0 3.5 0.00 0.28 0.28 62 1010.4
20260509195253 67 212 1.7 6.1 0.00 0.28 0.28 62 1010.2
20260509194748 68 171 0.9 8.7 0.00 0.28 0.28 62 1010.6
20260509194244 68 112 4.3 7.0 0.00 0.28 0.28 63 1010.4
20260509193742 67 95 2.6 3.5 0.00 0.28 0.28 65 1010.3
20260509193241 67 185 1.7 5.2 0.00 0.28 0.28 64 1010.3
20260509192738 68 175 1.7 7.8 0.00 0.28 0.28 64 1010.3
20260509192238 67 93 1.7 2.6 0.00 0.28 0.28 66 1010.6
20260509191734 68 93 2.6 5.2 0.00 0.28 0.28 64 1010.7
20260509191230 67 241 2.6 5.2 0.00 0.28 0.28 65 1010.7
20260509190726 67 218 1.7 8.7 0.00 0.28 0.28 66 1011.0
20260509190223 67 159 3.5 5.2 0.00 0.28 0.28 67 1010.9
20260509185721 66 156 1.7 3.5 0.00 0.28 0.28 67 1011.0
20260509185217 67 102 2.6 7.0 0.00 0.28 0.28 67 1011.2
20260509184715 67 169 1.7 3.5 0.00 0.28 0.28 68 1011.0
20260509184212 66 35 0.9 3.5 0.00 0.28 0.28 70 1011.2
20260509183708 66 194 3.5 6.1 0.00 0.28 0.28 70 1011.3
20260509183209 66 125 2.6 5.2 0.00 0.28 0.28 71 1011.3
20260509182704 66 160 2.6 3.5 0.00 0.28 0.28 70 1011.3
20260509182202 66 121 2.6 3.5 0.00 0.28 0.28 72 1011.4
20260509181700 65 95 0.9 2.6 0.00 0.28 0.28 74 1011.3
20260509181157 64 118 1.7 7.0 0.00 0.28 0.28 73 1011.5
20260509180654 64 212 4.3 7.0 0.00 0.28 0.28 75 1011.1
20260509180150 63 171 2.6 6.1 0.00 0.28 0.28 76 1011.2
20260509175646 63 205 1.7 6.1 0.00 0.28 0.28 77 1011.5
20260509175143 63 187 3.5 5.2 0.00 0.28 0.28 77 1011.3
20260509174639 63 114 1.7 2.6 0.00 0.28 0.28 79 1011.5
20260509174134 62 194 1.7 3.5 0.00 0.28 0.28 80 1011.5
20260509173630 62 228 1.7 2.6 0.00 0.28 0.28 80 1011.4
20260509173126 62 117 1.7 3.5 0.00 0.28 0.28 81 1011.6
20260509172623 61 197 2.6 3.5 0.00 0.28 0.28 81 1011.5
20260509172119 61 166 1.7 5.2 0.00 0.28 0.28 82 1011.5
20260509171614 60 144 1.7 5.2 0.00 0.28 0.28 83 1011.4
20260509171111 60 126 3.5 6.1 0.00 0.28 0.28 83 1011.7
20260509170607 60 165 1.7 3.5 0.00 0.28 0.28 84 1011.6
20260509165602 59 130 1.7 5.2 0.00 0.28 0.28 85 1011.5
20260509165058 60 145 2.6 5.2 0.00 0.28 0.28 85 1011.6
20260509164554 59 147 2.6 5.2 0.00 0.28 0.28 86 1011.9
20260509164049 59 140 3.5 7.8 0.00 0.28 0.28 87 1011.4
20260509163549 59 166 1.7 2.6 0.00 0.28 0.28 88 1011.6
20260509163049 59 181 3.5 3.5 0.00 0.28 0.28 88 1011.4
20260509162546 59 272 1.7 1.7 0.00 0.28 0.28 89 1011.4
20260509162042 58 225 2.6 2.6 0.00 0.28 0.28 90 1011.6
20260509161539 58 243 0.9 1.7 0.00 0.28 0.28 91 1011.4
20260509161038 57 126 0.9 3.5 0.00 0.28 0.28 91 1011.3
20260509160535 57 252 1.7 1.7 0.00 0.28 0.28 91 1011.2
20260509160030 57 158 3.5 5.2 0.00 0.28 0.28 92 1011.1
20260509155527 57 164 1.7 3.5 0.00 0.28 0.28 92 1011.0
20260509155023 57 151 0.9 2.6 0.00 0.28 0.28 93 1010.9
20260509154519 56 239 0.0 1.7 0.00 0.28 0.28 93 1011.0
20260509154017 56 111 1.7 3.5 0.00 0.28 0.28 94 1010.8
20260509153514 56 116 1.7 3.5 0.00 0.28 0.28 94 1010.9
20260509153011 56 109 0.9 2.6 0.00 0.28 0.28 94 1010.9
20260509152506 56 144 3.5 3.5 0.00 0.28 0.28 94 1010.9
20260509152003 56 199 1.7 2.6 0.00 0.28 0.28 95 1011.1
20260509151459 56 161 1.7 2.6 0.00 0.28 0.28 95 1011.2
20260509150958 56 239 1.7 5.2 0.00 0.28 0.28 95 1011.2
20260509150455 56 227 0.9 2.6 0.00 0.28 0.28 96 1010.9
20260509145953 55 246 1.7 2.6 0.00 0.28 0.28 96 1011.0
20260509145448 55 163 1.7 3.5 0.00 0.28 0.28 96 1010.8
20260509144943 54 118 1.7 5.2 0.00 0.28 0.28 96 1010.8
20260509144441 54 106 3.5 6.1 0.00 0.28 0.28 96 1011.0
20260509143938 54 114 3.5 5.2 0.05 0.28 0.28 96 1011.1
20260509143435 54 156 2.6 6.1 0.05 0.28 0.28 96 1010.9
20260509142931 54 137 1.7 5.2 0.00 0.27 0.27 96 1011.3
20260509142428 54 101 2.6 3.5 0.07 0.27 0.27 96 1011.2
20260509141923 54 157 0.0 5.2 0.07 0.27 0.27 96 1011.4
20260509141421 54 195 2.6 5.2 0.00 0.26 0.26 96 1011.5
20260509140917 54 163 1.7 5.2 0.00 0.26 0.26 96 1011.1
20260509140414 53 172 4.3 5.2 0.00 0.26 0.26 96 1011.2
20260509135912 53 101 3.5 6.1 0.05 0.26 0.26 96 1011.3
20260509135409 53 120 2.6 2.6 0.05 0.26 0.26 96 1011.4
20260509134907 53 199 1.7 3.5 0.07 0.25 0.25 96 1011.6
20260509134404 53 138 1.7 5.2 0.12 0.25 0.25 96 1011.7
20260509133901 53 198 3.5 5.2 0.05 0.24 0.24 96 1011.8
20260509133357 53 140 1.7 5.2 0.07 0.23 0.23 96 1011.5
20260509132856 53 137 1.7 7.8 0.12 0.23 0.23 96 1011.7
20260509132354 53 171 1.7 3.5 0.05 0.22 0.22 96 1011.6
20260509131851 53 174 1.7 7.0 0.07 0.21 0.21 96 1011.5
20260509131347 53 118 1.7 6.1 0.12 0.21 0.21 95 1011.5
20260509130844 53 183 3.5 6.1 0.05 0.20 0.20 96 1011.4
20260509130340 53 165 2.6 5.2 0.07 0.19 0.19 96 1011.5
20260509125836 53 190 2.6 5.2 0.07 0.19 0.19 96 1011.8
20260509125333 53 157 1.7 5.2 0.00 0.18 0.18 96 1011.8
20260509124829 53 140 1.7 1.7 0.05 0.18 0.18 96 1011.7
20260509124326 53 114 2.6 3.5 0.05 0.18 0.18 96 1011.8
20260509123824 53 138 0.9 1.7 0.07 0.17 0.17 96 1011.8
20260509123321 53 215 2.6 2.6 0.07 0.17 0.17 96 1011.9
20260509122816 53 129 1.7 2.6 0.07 0.16 0.16 96 1012.0
20260509122314 53 152 0.9 1.7 0.05 0.15 0.15 96 1011.9
20260509121811 53 109 0.9 1.7 0.05 0.15 0.15 96 1012.1
20260509121308 53 149 0.9 3.5 0.07 0.14 0.14 96 1012.0
20260509120806 53 125 0.9 1.7 0.07 0.14 0.14 95 1011.9
20260509120304 53 138 1.7 2.6 0.05 0.13 0.13 95 1012.0
20260509115802 53 126 0.9 3.5 0.05 0.13 0.13 95 1012.0
20260509115258 53 104 0.9 2.6 0.00 0.12 0.12 95 1011.9
20260509114756 53 141 1.7 1.7 0.00 0.12 0.12 95 1011.9
20260509114255 53 163 0.9 1.7 0.07 0.12 0.12 95 1011.9
20260509113753 53 140 0.0 0.9 0.00 0.11 0.11 95 1012.0
20260509113250 53 121 0.9 2.6 0.00 0.11 0.11 95 1012.0
20260509112747 53 181 0.9 3.5 0.05 0.11 0.11 95 1011.9
20260509112244 52 142 0.9 2.6 0.05 0.11 0.11 95 1011.8
20260509111742 52 125 0.9 1.7 0.00 0.10 0.10 95 1011.7
20260509111238 52 101 1.7 2.6 0.00 0.10 0.10 95 1011.6
20260509110735 52 157 0.0 2.6 0.00 0.10 0.10 95 1011.5
20260509110231 52 159 0.9 2.6 0.00 0.10 0.10 95 1011.6
20260509105730 52 147 0.9 2.6 0.07 0.10 0.10 95 1011.6
20260509105227 52 134 1.7 2.6 0.07 0.10 0.10 94 1011.5
20260509104724 52 107 1.7 2.6 0.00 0.09 0.09 94 1011.6
20260509104221 52 108 1.7 2.6 0.00 0.09 0.09 94 1011.5
20260509103719 52 165 1.7 1.7 0.05 0.09 0.09 94 1011.6
20260509103216 52 150 0.9 1.7 0.05 0.09 0.09 94 1011.5
20260509102714 52 136 0.9 1.7 0.00 0.08 0.08 94 1011.5
20260509102211 52 116 0.0 0.9 0.00 0.08 0.08 94 1011.3
20260509101707 52 104 0.9 1.7 0.00 0.08 0.08 94 1011.6
20260509101203 52 140 0.0 1.7 0.00 0.08 0.08 94 1011.5
20260509100701 52 134 0.0 0.9 0.00 0.08 0.08 94 1011.6
20260509100158 52 115 0.0 1.7 0.00 0.08 0.08 94 1011.3
20260509095655 52 167 0.0 0.9 0.07 0.08 0.08 93 1011.6
20260509095152 53 161 0.0 1.7 0.07 0.08 0.08 93 1011.5
20260509094649 53 181 1.7 2.6 0.00 0.07 0.07 93 1011.6
20260509094145 53 132 0.9 2.6 0.00 0.07 0.07 93 1011.6